Location: ??????
(56.0120°N, 39.1740°E)
Time: 23:00:30
(UTC+00:00)

Cosmos 1954 Rocket - Pass Details

Date: 14 April 2026
Orbit: 748 x 776 km, 74.0° (Epoch: 13 May)

Event Time Altitude Azimuth Distance (km) Brightness Sun altitude
Rises 21:14:17 0° 331° (NNW) 3,258 8.3 -24.3°
Reaches altitude 10° 21:16:41 10° 330° (NNW) 2,323 7.3 -24.3°
Maximum altitude 21:21:58 81° 245° (WSW) 781 3.9 -24.3°
Enters shadow 21:22:31 71° 181° (S) 813 3.8 -24.3°
